Regional Weather Roundup
Issued by NWS

Home | Current Version | Previous Version | Text Only | Print | Product List | Glossary Off
Versions: 1 2 3 4 5 6 7 8 9 10 11 12 13 14 15 16 17 18 19 20 21 22 23 24 25 26 27 28 29 30 31 32 33 34 35 36 37 38 39 40 41 42 43 44 45 46 47 48 49 50

000
ASUS45 KBOI 030310
RWRID
WEATHER ROUNDUP FOR IDAHO
NATIONAL WEATHER SERVICE BOISE ID
800 PM MST MON MAR 02 2015

NOTE: "FAIR" INDICATES FEW OR NO CLOUDS BELOW 12000 FEET
WITH NO SIGNIFICANT WEATHER AND/OR OBSTRUCTIONS TO VISIBILITY

IDZ012-014-030400-
SOUTHWEST IDAHO


CITY           SKY/WX    TMP DP  RH WIND       PRES   REMARKS
BOISE          CLOUDY    43  20  39 NW7       29.75R
CALDWELL       CLOUDY    45  21  39 NW14      29.78R
MOUNTAIN HOME  CLOUDY    40  21  45 NW13      29.73R WCI  33
$$

IDZ016-017-030400-
SOUTHCENTRAL IDAHO


CITY           SKY/WX    TMP DP  RH WIND       PRES   REMARKS
BURLEY         CLEAR     37  16  42 W9        29.66R WCI  30
JEROME         PTCLDY    37  18  46 SW13      29.69R WCI  29
TWIN FALLS     PTCLDY    37  19  48 SW15      29.70R WCI  28
$$

IDZ019>023-030400-
SOUTHEAST IDAHO


CITY           SKY/WX    TMP DP  RH WIND       PRES   REMARKS
IDAHO FALLS    CLOUDY    32  26  78 SW7       29.64R WCI  26
POCATELLO      CLEAR     30  22  72 S9        29.65R WCI  22
REXBURG        CLOUDY    34 N/A N/A S6        29.62R WCI  29
$$

IDZ006-010-011-018-031-032-030400-
CENTRAL IDAHO MOUNTAINS


CITY           SKY/WX    TMP DP  RH WIND       PRES   REMARKS
MCCALL         CLOUDY    31  22  69 N9        29.71R WCI  23
HAILEY         PTCLDY    37  18  44 CALM      29.63R
STANLEY          N/A     30  15  53 N6        29.66R WCI  24
SALMON         CLOUDY    37  16  41 N9        29.67R WCI  31
CHALLIS        CLOUDY    36  17  46 NE7       29.64R WCI  30
$$

IDZ002-004-006-007-026-030400-
NORTHERN IDAHO


CITY           SKY/WX    TMP DP  RH WIND       PRES   REMARKS
LEWISTON       CLOUDY    39  30  70 W8        29.93R WCI  33
LOWELL           N/A     35  33  92 CALM      29.92R
COEUR D`ALENE  MOCLDY    32  25  74 N15G22    29.93R WCI  22
MULLAN PASS    LGT SNOW  15  13  91 VRB5      29.75R VSB 1   WCI   8
$$



USA.gov is the U.S. government's official web portal to all federal, state and local government web resources and services.